Date,TemperatureHighF,TemperatureAvgF,TemperatureLowF,DewpointHighF,DewpointAvgF,DewpointLowF,HumidityHigh,HumidityAvg,HumidityLow,PressureMaxIn,PressureMinIn,WindSpeedMaxMPH,WindSpeedAvgMPH,GustSpeedMaxMPH,PrecipitationSumIn
2012-12-1,60,47,34,0,0,0,0,0,100,0.00,0.00,14,3,14,0.00
2012-12-2,56,54,51,0,0,0,0,0,100,0.00,0.00,19,6,19,0.36
2012-12-3,62,58,55,0,0,0,0,0,100,0.00,0.00,14,4,14,0.02
2012-12-4,62,54,39,0,0,0,0,0,100,0.00,0.00,21,7,23,0.26
2012-12-5,40,35,27,0,0,0,0,0,100,0.00,0.00,14,4,15,0.02
2012-12-6,44,35,26,0,0,0,0,0,100,0.00,0.00,12,4,14,0.00
2012-12-7,49,46,42,0,0,0,0,0,100,0.00,0.00,9,2,10,0.58
2012-12-8,54,49,39,0,0,0,0,0,100,0.00,0.00,16,5,17,0.06
2012-12-9,57,45,38,0,0,0,0,0,100,0.00,0.00,18,6,18,0.42
2012-12-10,56,42,33,0,0,0,0,0,100,0.00,0.00,16,5,16,0.14
2012-12-11,35,32,25,0,0,0,0,0,100,0.00,0.00,12,3,13,0.00
2012-12-12,41,29,20,0,0,0,0,0,100,0.00,0.00,7,1,7,0.00
2012-12-13,45,31,21,0,0,0,0,0,100,0.00,0.00,7,1,8,0.00
2012-12-14,49,37,28,0,0,0,0,0,100,0.00,0.00,9,3,9,0.00
2012-12-15,50,42,34,0,0,0,0,0,100,0.00,0.00,12,4,12,0.00
2012-12-16,60,54,49,0,0,0,0,0,100,0.00,0.00,18,6,19,0.00
2012-12-17,50,46,42,0,0,0,0,0,100,0.00,0.00,11,2,11,0.36
2012-12-18,43,39,36,0,0,0,0,0,100,0.00,0.00,17,5,19,0.02
2012-12-19,47,41,36,0,0,0,0,0,100,0.00,0.00,20,3,20,0.00
2012-12-20,48,42,34,0,0,0,0,0,100,0.00,0.00,37,11,38,1.34
2012-12-21,34,31,28,0,0,0,0,0,100,0.00,0.00,34,12,37,5.96
2012-12-22,32,28,22,0,0,0,0,0,100,0.00,0.00,23,5,25,0.02
2012-12-23,41,28,16,0,0,0,0,0,100,0.00,0.00,9,1,10,0.00
2012-12-24,34,31,26,0,0,0,0,0,100,0.00,0.00,13,4,15,0.08
2012-12-25,34,32,31,0,0,0,0,0,100,0.00,0.00,13,4,13,0.00
2012-12-26,32,30,27,0,0,0,0,0,100,0.00,0.00,27,9,27,0.00
2012-12-27,31,27,25,0,0,0,0,0,100,0.00,0.00,16,3,18,0.00
2012-12-28,33,28,23,0,0,0,0,0,100,0.00,0.00,12,3,12,0.02
2012-12-29,32,28,26,0,0,0,0,0,100,0.00,0.00,15,2,16,0.00
2012-12-30,27,24,20,0,0,0,0,0,100,0.00,0.00,13,4,14,0.00
2012-12-31,34,28,20,0,0,0,0,0,100,0.00,0.00,17,5,17,0.00